AirNav   Pilot Hours Calculator
 
 1120 users online  

LS81 Lake Charles Office Heliport
Lake Charles, Louisiana, USA

GOING TO LAKE CHARLES?


FAA INFORMATION EFFECTIVE 07 NOVEMBER 2019

Location

FAA Identifier: LS81
Lat/Long: 30-06-51.7520N 093-12-43.5520W
30-06.862533N 093-12.725867W
30.1143756,-93.2120978
(estimated)
Elevation: 15 ft. / 5 m (estimated)
Variation: 05E (1985)
From city: 2 miles SE of LAKE CHARLES, LA
Time zone: UTC -6 (UTC -5 during Daylight Saving Time)
Zip code: 70607

Heliport Operations

Heliport use: Private use. Permission required prior to landing
Activation date: 03/1991
Control tower: no
ARTCC: HOUSTON CENTER
FSS: DE RIDDER FLIGHT SERVICE STATION
Attendance: UNATNDD
Segmented circle: no

Heliport Communications

WX ASOS at LCH (0.9 nm NW): PHONE 337-477-3371
WX AWOS-3 at CWF (7 nm NE): 120.0 (337-436-3452)
WX AWOS-3PT at UXL (9 nm W): 118.175 (337-558-5321)

Nearby radio navigation aids

VOR radial/distance  VOR name  Freq  Var
LCHr247/5.8LAKE CHARLES VORTAC113.4007E

 
NDB name  Hdg/Dist  Freq  Var  ID
MOSSY180/11.641804ECW -.-. .--
SULPHUR111/11.927804EAUR .- ..- .-.
DE RIDDER167/38.838504EDXB -.. -..- -...

Heliport Services

Runway Information

Helipad H1

Dimensions: 25 x 25 ft. / 8 x 8 m
Surface: concrete
Traffic pattern: leftleft

Heliport Ownership and Management from official FAA records

Ownership: Privately-owned
Owner: TENNESSEE GAS PIPELINE CO.
1115 REGAL ROW
HOUMA, LA 70360
Phone 504-868-6785
SUGAR MILL POINT.
Manager: K. J. CHERAMIE
1115 REGAL ROW
HOUMA, LA 70360
Phone 504-868-6785
SUGAR MILL POINT.

Additional Remarks

A52-H1 128 FT TOWER 3/4 MILE NNW OF HELIPAD.
FOR CD CTC LAKE CHARLES APCH AT 337-480-3103, WHEN APCH CLSD CTC HOUSTON ARTCC AT 281-230-5622.

Instrument Procedures

There are no published instrument procedures at LS81.

Some nearby airports with instrument procedures:

KLCH - Lake Charles Regional Airport (1 nm NW)
KCWF - Chennault International Airport (7 nm NE)
KUXL - Southland Field Airport (9 nm W)
6R1 - Welsh Airport (21 nm E)
5R8 - De Quincy Industrial Airpark (24 nm NW)
 
Loc | Ops | Rwys | IFR | FBO | Links
Com | Nav | Svcs | Stats | Notes
Area around LS81 (Lake Charles Office Heliport)
 
Road maps at: MapQuest Bing Google
 
Aerial photo
No photo
 
Sectional chart

 
Airport distance calculator
Flying to Lake Charles Office Heliport? Find the distance to fly.

From to LS81

Sunrise and sunset
Times for 14-Nov-2019
 Local
(UTC-6)
 Zulu
(UTC)
Morning civil twilight06:1312:13
Sunrise06:3812:38
Sunset17:1623:16
Evening civil twilight17:4223:42

Current date and time
Zulu (UTC)  14-Nov-2019 22:25:30
Local (UTC-6)  14-Nov-2019 16:25:30
 
METAR
KLCH 142153Z AUTO 36011KT 10SM OVC055 09/06 A3024 RMK AO2 RAB34E44 SLP249 P0000 T00940056
KCWF 
7nm NE 
142149Z 35006KT 10SM BKN010 OVC055 08/06 A3026
KUXL 
9nm W 
142155Z AUTO 36007KT 10SM -DZ BKN048 BKN060 OVC090 09/06 A3025 RMK AO2 T00860056
TAF
KLCH 141744Z 1418/1518 04008KT P6SM -RA SCT050 OVC110 FM142300 02008KT 6SM -RA BR OVC015 FM150400 01008KT 5SM -RA BR OVC007 FM151100 01008KT P6SM SKC
NOTAMs
Click for the latest NOTAMs
NOTAMs are issued by the DoD/FAA and will open in a separate window not controlled by AirNav.

 

 
 

Would you like to see your business listed on this page?

 If your business provides an interesting product or service to pilots, flight crews, aircraft, or users of the Lake Charles Office Heliport, you should consider listing it here.  To start the listing process, click on the button below
 
Add a business
 

Other Pages about Lake Charles Office Heliport

Update a link
 
Copyright © AirNav, LLC. All rights reserved. Privacy Policy  Contact